Location: Antin
(43.3330°N, 0.2804°E)
Time: 18:44:39
(UTC+00:00)

SME Rocket - Pass Details

Date: 18 December 2023
Orbit: 550 x 2645 km, 99.9° (Epoch: 20 February)

Event Time Altitude Azimuth Distance (km) Brightness Sun altitude
Rises 20:30:12 0° 219° (SW) 3,877 7.4 -43.6°
Reaches altitude 10° 20:33:16 10° 237° (WSW) 3,221 7.1 -44.1°
Maximum altitude 20:38:39 20° 282° (WNW) 3,004 6.9 -45.1°
Drops below altitude 10° 20:45:39 10° 325° (NW) 4,341 7.7 -46.4°
Sets 20:50:47 0° 340° (NNW) 5,713 8.3 -47.3°
